Location: Newark
(23.3970°S, 47.6010°W)
Time: 08:41:45
(UTC+00:00)

deb Explorer IX - Pass Details

Date: 23 February 2020
Orbit: 548 x 1100 km, 38.8° (Epoch: 08 April)

Event Time Altitude Azimuth Distance (km) Brightness Sun altitude
Rises 02:45:54 0° 252° (WSW) 3,775 - -55.3°
Reaches altitude 10° 02:49:09 10° 238° (WSW) 2,886 - -55.5°
Maximum altitude 02:54:45 24° 187° (S) 2,101 - -55.8°
Drops below altitude 10° 03:00:29 10° 135° (SE) 2,963 - -56.1°
Sets 03:03:52 0° 122° (ESE) 3,897 - -56.2°
